Etusivu
METAR-TAF:

METAR-TAF

Lentoasemat :

Morris Municipal Airport (James R. Washburn Field)

Morris, Illinois, Yhdysvallat

Leveyspiiri: 41-25-31N, Pituuspiiri: 088-25-07W, korkeus merenpinnasta: 178 m

Tämänhetkinen sää

Tämä raportti tehtiin 35 minuuttia sitten, kello 09.35 UTC
Tuuli 6 kn pohjoisen/luoteesta
Lämpötila -7°C
Kosteus 79%
Ilmanpaine 1033 hPa
Näkyvyys: 16.1 km
selkeää

METAR: KC09 190935Z AUTO 33006KT 10SM CLR M07/M10 A3050 RMK AO2 T10671100

Aika: 04:10 (10:10 UTC)


TAF: puuttuu

Säähavainnot ja -ennusteet yli 4000 lentoasemalta (METAR- ja TAF-raportit).

Käytössä olevat sääasemat on merkitty karttaan keltaisilla ja punaisilla pisteillä.

Aseta hiiri pisteen päälle nähdäksesi sääaseman nimen.

Klikkaa sitten nähdäksesi säähavainnot ja -ennusteet.

Kartan vaihtaminen: klikkaa mustalla rastilla varustettuja vihreitä pisteitä, niin voit zoomata sisään; viivalla varustettua vihreää pistettä, niin voit zoomata ulos tai vihreitä nuolia, niin pääset viereisille kartoille.


METAR-TAF: